{"data":{"norad_id":68790,"epoch":"2026-05-25T02:05:03.408000Z","epoch_age_seconds":63500,"freshness":"FRESH","line1":"1 68790U 26086AA  26145.08684500  .00116976  00000+0  77370-3 0  9997","line2":"2 68790  97.2869 181.9800 0000409 188.6623 171.4635 15.75212210  5522","mean_motion":15.7521221,"eccentricity":4.09e-5,"inclination_deg":97.2869,"raan_deg":181.98,"arg_perigee_deg":188.6623,"mean_anomaly_deg":171.4635,"bstar":0.0007737,"rev_number":552,"period_min":91.416254321695,"perigee_km":343.75244447506,"apogee_km":344.30231752143,"semimajor_km":6722.1643809982,"source":"CELESTRAK","updated_at":"2026-05-25T13:38:22.039536Z"}}